1500836400.72,40949,22.0,74242.5,5.69,-14.51,-14.93,0,*79
1500836401.99,40950,22.0,74236.3,5.69,-14.79,-14.97,0,*7F
1500836403.25,40951,22.0,74232.0,5.69,-14.97,-14.93,0,*7A
1500836404.46,40952,22.0,74228.3,5.71,-14.89,-13.87,0,*7D
1500836405.7,40953,22.0,74226.5,5.69,-13.65,-11.51,0,*79
1500836406.94,40954,22.0,74224.3,5.69,-11.63,-9.71,0,*41
1500836408.14,40955,22.0,74224.3,5.69,-9.97,-9.71,0,*72
1500836409.36,40956,22.0,74230.3,5.69,-9.75,-10.15,0,*47
1500836410.56,40957,22.0,74230.8,5.69,-9.89,-9.75,0,*7B
1500836411.76,40958,22.0,74232.3,5.69,-9.97,-9.31,0,*7B
1500836412.94,40959,22.0,74234.0,5.71,-9.31,-9.01,0,*7C
1500836414.15,40960,22.0,74232.5,5.71,-8.45,-8.51,0,*70
1500836415.33,40961,22.0,74228.0,5.71,-7.53,-8.25,0,*7A
1500836416.5,40962,22.0,74230.5,5.71,-7.53,-8.75,0,*7C
1500836417.7,40963,22.0,74232.8,5.71,-7.31,-8.59,0,*77
1500836418.92,40964,22.0,74236.5,5.71,-7.43,-8.81,0,*70
1500836420.15,40965,22.0,74238.0,5.71,-7.73,-10.15,0,*46
1500836421.42,40966,22.0,74238.3,5.73,-9.15,-10.75,0,*4F
1500836422.64,40967,22.0,74238.0,5.71,-9.61,-9.57,0,*77
1500836423.85,40968,22.0,74232.0,5.73,-8.59,-8.29,0,*78
1500836425.07,40969,22.0,74232.0,5.71,-7.69,-7.95,0,*7F
1500836426.28,40970,22.0,74238.0,5.73,-6.73,-8.97,0,*72
1500836427.51,40971,22.0,74242.8,5.73,-7.39,-11.19,0,*42
1500836428.75,40972,22.0,74240.0,5.73,-9.41,-12.43,0,*4C
1500836430.02,40973,22.0,74234.8,5.73,-10.63,-12.35,0,*74
1500836431.22,40974,22.0,74238.8,5.75,-11.15,-11.23,0,*71
1500836432.44,40975,22.0,74236.8,5.75,-10.75,-10.19,0,*7F
1500836433.67,40976,22.0,74236.8,5.73,-9.83,-9.23,0,*7A
1500836434.91,40977,22.0,74232.8,5.73,-9.11,-8.89,0,*71
1500836436.12,40978,22.0,74236.3,5.73,-9.01,-8.29,0,*75
1500836437.3,40979,22.0,74234.5,5.75,-8.45,-6.69,0,*79
1500836438.54,40980,22.0,74230.5,5.75,-7.01,-5.69,0,*73
1500836439.74,40981,22.0,74232.3,5.75,-6.05,-5.65,0,*7B
1500836440.95,40982,22.0,74228.0,5.75,-5.77,-5.43,0,*7A
1500836442.19,40983,22.0,74226.5,5.75,-5.31,-4.85,0,*72
1500836443.4,40984,22.0,74230.3,5.77,-4.61,-4.37,0,*7A
1500836444.59,40985,22.0,74232.0,5.75,-4.13,-4.53,0,*7E
1500836445.8,40986,22.0,74224.5,5.75,-3.43,-4.49,0,*74
1500836447.03,40987,22.0,74230.5,5.77,-2.95,-4.93,0,*7A
1500836448.25,40988,22.0,74232.3,5.75,-2.95,-5.81,0,*75
1500836449.47,40989,22.0,74232.5,5.77,-3.83,-6.55,0,*7A
1500836450.65,40990,22.0,74230.5,5.75,-4.65,-6.55,0,*7F
1500836451.88,40991,22.0,74228.3,5.77,-5.07,-6.05,0,*7C
1500836453.14,40992,22.0,74232.8,5.77,-5.07,-5.77,0,*79
1500836454.35,40993,22.0,74234.5,5.75,-5.23,-6.05,0,*7A
1500836455.56,40994,22.0,74236.3,5.77,-5.51,-6.55,0,*7F
1500836456.79,40995,22.0,74238.5,5.77,-5.77,-7.23,0,*7A
1500836458.0,40996,22.0,74234.8,5.75,-5.69,-7.49,0,*78
1500836459.21,40997,22.0,74234.8,5.77,-6.39,-8.17,0,*79
1500836460.38,40998,22.0,74232.5,5.79,-7.15,-8.33,0,*71
1500836461.6,40999,22.0,74230.8,5.79,-7.65,-7.83,0,*73
1500836462.84,41000,22.0,74232.3,5.79,-7.73,-7.31,0,*75
1500836464.07,41001,22.0,74232.3,5.79,-7.31,-6.27,0,*74
1500836465.28,41002,22.0,74232.3,5.79,-6.81,-5.85,0,*76
1500836466.53,41003,22.0,74228.3,5.79,-5.85,-5.31,0,*7F
1500836467.74,41004,22.0,74230.5,5.79,-5.31,-5.35,0,*73
1500836468.95,41005,22.0,74228.0,5.79,-5.07,-6.01,0,*73
1500836470.2,41006,22.0,74226.5,5.81,-5.03,-5.73,0,*75
1500836471.41,41007,22.0,74230.8,5.81,-4.53,-5.55,0,*74
1500836472.62,41008,22.0,74232.0,5.79,-4.65,-5.73,0,*7D
1500836473.82,41009,22.0,74232.3,5.79,-4.69,-5.35,0,*72
1500836475.06,41010,22.0,74232.0,5.81,-4.33,-5.15,0,*70
1500836476.29,41011,22.0,74228.3,5.81,-3.87,-4.93,0,*76
1500836477.52,41012,22.0,74232.3,5.81,-3.51,-5.43,0,*72
1500836478.73,41013,22.0,74234.5,5.79,-3.63,-6.77,0,*71
1500836479.93,41014,22.0,74228.5,5.81,-4.53,-8.67,0,*7A
1500836481.18,41015,22.0,74230.5,5.81,-6.77,-10.41,0,*42
1500836482.42,41016,22.0,74228.8,5.81,-7.95,-10.15,0,*4D
1500836483.68,41017,22.0,74224.5,5.81,-8.51,-9.57,0,*75
1500836484.89,41018,22.0,74228.3,5.81,-8.37,-8.89,0,*78
1500836486.12,41019,22.0,74232.0,5.81,-7.87,-9.45,0,*7C
1500836487.34,41020,22.0,74230.5,5.79,-8.55,-11.55,0,*49
1500836488.57,41021,22.0,74228.8,5.81,-9.97,-12.61,0,*44
1500836489.84,41022,22.0,74232.3,5.81,-10.71,-12.61,0,*77
1500836491.06,41023,22.0,74234.0,5.81,-11.23,-12.47,0,*74
1500836492.31,41024,22.0,74230.8,5.81,-10.97,-11.37,0,*79
1500836493.52,41025,22.0,74234.5,5.81,-10.57,-11.11,0,*70
1500836494.76,41026,22.0,74238.8,5.81,-10.09,-12.35,0,*7D
1500836495.98,41027,22.0,74234.0,5.79,-11.63,-14.33,0,*76
1500836497.23,41028,22.0,74238.3,5.81,-12.97,-14.47,0,*75
1500836498.43,41029,22.0,74240.3,5.79,-13.65,-14.65,0,*7F
1500836499.7,41030,22.0,74236.8,5.81,-14.51,-14.97,0,*7D
1500836500.96,41031,22.0,74234.0,5.81,-14.47,-15.07,0,*73
1500836502.18,41032,22.0,74238.0,5.79,-14.65,-14.97,0,*7F
1500836503.37,41033,22.0,74238.8,5.79,-14.37,-13.73,0,*74
1500836504.61,41034,22.0,74234.5,5.81,-12.97,-13.33,0,*7C
1500836505.84,41035,22.0,74236.5,5.79,-13.37,-14.23,0,*77
1500836507.06,41036,22.0,74238.8,5.79,-14.05,-14.23,0,*72
1500836508.31,41037,22.0,74232.3,5.81,-14.51,-14.19,0,*7C
1500836509.49,41038,22.0,74234.3,5.79,-14.65,-14.11,0,*7B
1500836510.73,41039,22.0,74232.8,5.77,-14.97,-14.15,0,*7D
1500836511.96,41040,22.0,74228.5,5.77,-15.11,-13.87,0,*70
1500836513.21,41041,22.0,74224.5,5.77,-15.01,-13.79,0,*71
1500836514.44,41042,22.0,74224.5,5.75,-14.83,-12.97,0,*7A
1500836515.66,41043,22.0,74238.0,5.75,-14.55,-12.43,0,*79
1500836516.91,41044,22.0,74230.3,5.75,-14.43,-11.89,0,*7C
1500836518.14,41045,22.0,74230.3,5.75,-14.15,-11.59,0,*73
1500836519.36,41046,22.0,74228.5,5.75,-13.55,-11.33,0,*7F
1500836520.6,41047,22.0,74222.5,5.73,-12.75,-10.89,0,*7B
1500836521.85,41048,22.0,74216.8,5.73,-11.33,-10.05,0,*71
1500836523.04,41049,22.0,74212.0,5.75,-10.93,-9.67,0,*41
1500836524.25,41050,22.0,74196.5,5.77,-10.57,-8.71,0,*45
1500836525.45,41051,22.0,74194.0,5.75,-10.05,-8.03,0,*44
1500836526.66,41052,22.0,74194.0,5.75,-9.53,-7.15,0,*74
1500836527.88,41053,22.0,74218.8,5.77,-8.81,-6.69,0,*73
1500836529.11,41054,22.0,74224.3,5.77,-7.31,-7.49,0,*73
1500836530.32,41055,22.0,74226.0,5.75,-7.39,-10.09,0,*4A
1500836531.51,41056,22.0,74222.0,5.75,-8.59,-11.45,0,*49
1500836532.73,41057,22.0,74222.8,5.75,-8.59,-10.67,0,*49
1500836533.95,41058,22.0,74228.5,5.77,-8.25,-10.01,0,*4F
1500836535.19,41059,22.0,74232.8,5.77,-7.99,-10.27,0,*42
1500836536.44,41060,22.0,74232.0,5.77,-8.51,-10.35,0,*40
1500836537.68,41061,22.0,74238.8,5.77,-9.31,-12.07,0,*45
1500836538.9,41062,22.0,74234.8,5.77,-11.11,-12.97,0,*74
1500836540.16,41063,22.0,74228.3,5.77,-11.81,-11.93,0,*7B
1500836541.38,41064,22.0,74228.0,5.77,-10.85,-11.01,0,*72
1500836542.59,41065,22.0,74228.3,5.77,-10.31,-10.85,0,*71
1500836543.81,41066,22.0,74232.3,5.77,-9.75,-10.27,0,*42
1500836545.05,41067,22.0,74230.3,5.77,-9.11,-9.93,0,*76
1500836546.26,41068,22.0,74230.5,5.77,-8.93,-9.31,0,*7A
1500836547.5,41069,22.0,74228.0,5.77,-9.37,-9.05,0,*73
1500836548.75,41070,22.0,74230.3,5.77,-8.51,-7.99,0,*71
1500836549.98,41071,22.0,74234.3,5.77,-7.49,-7.73,0,*72
1500836551.22,41072,22.0,74236.0,5.77,-6.97,-8.25,0,*7F
1500836552.42,41073,22.0,74234.5,5.77,-6.77,-8.97,0,*79
1500836553.65,41074,22.0,74236.5,5.77,-7.69,-10.85,0,*4A
1500836554.87,41075,22.0,74230.3,5.77,-9.23,-11.19,0,*4F
1500836556.08,41076,22.0,74234.0,5.77,-9.75,-10.49,0,*4B
1500836557.29,41077,22.0,74232.0,5.79,-9.45,-9.19,0,*7A
1500836558.47,41078,22.0,74234.8,5.79,-8.75,-8.93,0,*74
1500836559.65,41079,22.0,74228.8,5.79,-8.63,-8.63,0,*7D
1500836560.83,41080,22.0,74234.5,5.79,-8.25,-8.75,0,*7E
1500836562.01,41081,22.0,74232.3,5.79,-8.63,-9.31,0,*7C
1500836563.22,41082,22.0,74232.3,5.79,-8.89,-9.15,0,*7D
1500836564.44,41083,22.0,74234.0,5.77,-8.93,-9.89,0,*7C
1500836565.64,41084,22.0,74238.0,5.79,-9.57,-11.23,0,*45
1500836566.86,41085,22.0,74238.0,5.79,-10.45,-11.93,0,*74
1500836568.11,41086,22.0,74238.3,5.79,-10.67,-11.81,0,*74
1500836569.36,41087,22.0,74234.8,5.79,-10.71,-11.67,0,*7A
1500836570.61,41088,22.0,74236.8,5.79,-10.67,-11.63,0,*76
1500836571.86,41089,22.0,74232.5,5.79,-10.71,-10.79,0,*7A
1500836573.05,41090,22.0,74232.5,5.79,-10.57,-9.31,0,*42
1500836574.31,41091,22.0,74230.8,5.77,-9.37,-7.57,0,*7D
1500836575.52,41092,22.0,74232.5,5.75,-7.61,-6.01,0,*73
1500836576.74,41093,22.0,74234.3,5.77,-6.27,-5.35,0,*77
1500836578.01,41094,22.0,74236.3,5.77,-5.07,-4.81,0,*7F
1500836579.23,41095,22.0,74234.8,5.77,-4.85,-4.99,0,*7C
1500836580.44,41096,22.0,74232.8,5.79,-4.57,-4.77,0,*7E
1500836581.65,41097,22.0,74234.3,5.79,-4.41,-4.89,0,*79
1500836582.88,41098,22.0,74234.8,5.81,-4.65,-4.77,0,*76
1500836584.06,41099,22.0,74224.3,5.79,-4.57,-4.17,0,*77
1500836585.25,41100,22.0,74226.3,5.79,-4.25,-3.35,0,*74
1500836586.46,41101,22.0,74228.0,5.79,-3.47,-2.39,0,*7B
1500836587.69,41102,22.0,74228.3,5.81,-2.39,-1.91,0,*76
1500836588.92,41103,22.0,74230.5,5.79,-1.87,-1.87,0,*71
1500836590.11,41104,22.0,74234.5,5.79,-1.29,-1.75,0,*7F
1500836591.37,41105,22.0,74228.5,5.81,-1.01,-1.83,0,*7A
1500836592.6,41106,22.0,74226.0,5.81,-0.73,-1.91,0,*4E
1500836593.8,41107,22.0,74220.3,5.81,-0.77,-2.39,0,*4A
1500836595.03,41108,22.0,74222.8,5.81,-0.89,-2.91,0,*46
1500836596.25,41109,22.0,74226.0,5.81,-1.25,-3.63,0,*7C
1500836597.49,41110,22.0,74224.5,5.81,-1.83,-4.57,0,*78
1500836598.74,41111,22.0,74236.3,5.81,-2.75,-5.93,0,*7A
1500836599.93,41112,22.0,74232.8,5.83,-4.61,-8.17,0,*79
1500836601.16,41113,22.0,74230.8,5.81,-6.89,-9.83,0,*72
1500836602.37,41114,22.0,74226.0,5.83,-8.33,-10.63,0,*4E
1500836603.59,41115,22.0,74228.0,5.83,-10.05,-11.77,0,*77
1500836604.85,41116,22.0,74230.0,5.81,-11.37,-11.93,0,*7C
1500836606.06,41117,22.0,74228.3,5.83,-11.23,-11.01,0,*71
1500836607.28,41118,22.0,74228.8,5.85,-9.57,-9.93,0,*70
1500836608.51,41119,22.0,74232.8,5.83,-8.71,-10.41,0,*45
1500836609.73,41120,22.0,74234.0,5.83,-9.15,-11.19,0,*40
1500836610.92,41121,22.0,74234.3,5.83,-9.67,-11.11,0,*4C
1500836612.13,41122,22.0,74234.3,5.83,-9.83,-10.89,0,*45
1500836613.36,41123,22.0,74234.3,5.81,-9.89,-11.67,0,*4D
1500836614.61,41124,22.0,74232.0,5.81,-10.23,-12.35,0,*76
1500836615.88,41125,22.0,74238.5,5.81,-10.71,-12.35,0,*70
1500836617.1,41126,22.0,74230.3,5.81,-12.03,-13.51,0,*77
1500836618.37,41127,22.0,74228.3,5.81,-11.29,-12.11,0,*78
1500836619.62,41128,22.0,74230.3,5.81,-11.29,-12.97,0,*79
1500836620.89,41129,22.0,74234.0,5.81,-12.65,-14.75,0,*79
1500836622.14,41130,22.0,74232.0,5.81,-14.23,-14.79,0,*79
1500836623.37,41131,22.0,74230.5,5.81,-12.61,-13.73,0,*75
1500836624.62,41132,22.0,74228.5,5.81,-13.33,-14.65,0,*70
1500836625.89,41133,22.0,74224.0,5.81,-13.83,-14.51,0,*7D
1500836627.14,41134,22.0,74220.5,5.81,-13.83,-14.37,0,*7A
1500836628.36,41135,22.0,74226.0,5.81,-13.65,-14.37,0,*73
1500836629.61,41136,22.0,74226.8,5.79,-14.05,-14.93,0,*78
1500836630.83,41137,22.0,74228.5,5.79,-14.33,-14.97,0,*78
1500836632.05,41138,22.0,74232.3,5.79,-14.33,-14.83,0,*72
1500836633.25,41139,22.0,74228.0,5.79,-14.23,-14.19,0,*71
1500836634.47,41140,22.0,74220.8,5.81,-13.47,-12.39,0,*79
1500836635.72,41141,22.0,74218.5,5.79,-12.07,-10.71,0,*74
1500836636.91,41142,22.0,74220.8,5.79,-10.31,-9.71,0,*48
1500836638.09,41143,22.0,74220.0,5.79,-9.89,-10.57,0,*4E
1500836639.3,41144,22.0,74226.8,5.79,-9.71,-9.57,0,*76
1500836640.5,41145,22.0,74228.5,5.79,-9.45,-9.31,0,*70
1500836641.7,41146,22.0,74230.5,5.81,-9.27,-9.31,0,*70
1500836642.89,41147,22.0,74228.0,5.79,-8.89,-9.89,0,*70
1500836644.08,41148,22.0,74234.3,5.79,-9.27,-11.11,0,*42
1500836645.3,41149,22.0,74236.3,5.79,-9.75,-11.89,0,*45
1500836646.53,41150,22.0,74236.3,5.79,-10.41,-12.21,0,*73
1500836647.74,41151,22.0,74230.0,5.79,-10.31,-12.65,0,*75
1500836648.96,41152,22.0,74232.0,5.81,-11.11,-12.97,0,*7F
1500836650.17,41153,22.0,74234.0,5.79,-12.07,-13.47,0,*71
1500836651.42,41154,22.0,74228.5,5.81,-11.23,-12.35,0,*70
1500836652.62,41155,22.0,74232.3,5.79,-11.23,-12.93,0,*7A
1500836653.84,41156,22.0,74238.3,5.79,-12.11,-13.65,0,*73
1500836655.03,41157,22.0,74238.0,5.79,-13.23,-14.61,0,*71
1500836656.22,41158,22.0,74238.0,5.79,-13.47,-13.73,0,*78
1500836657.45,41159,22.0,74234.8,5.79,-13.33,-13.19,0,*76
1500836658.7,41160,22.0,74238.5,5.79,-11.93,-12.53,0,*7B
1500836659.91,41161,22.0,74238.5,5.79,-11.37,-13.07,0,*74
1500836661.16,41162,22.0,74240.0,5.79,-12.11,-12.53,0,*70
1500836662.38,41163,22.0,74234.5,5.79,-11.23,-11.51,0,*72
1500836663.6,41164,22.0,74236.5,5.79,-10.53,-11.67,0,*76
1500836664.82,41165,22.0,74234.0,5.79,-10.57,-10.71,0,*75
1500836666.04,41166,22.0,74238.3,5.79,-9.31,-10.67,0,*49
1500836667.3,41167,22.0,74236.8,5.77,-9.61,-10.75,0,*40
1500836668.53,41168,22.0,74238.3,5.77,-9.61,-10.89,0,*4C
1500836669.78,41169,22.0,74238.3,5.77,-10.19,-12.57,0,*7B
1500836671.0,41170,22.0,74234.0,5.79,-12.65,-14.65,0,*73
1500836672.22,41171,22.0,74232.0,5.79,-13.73,-14.93,0,*7D
1500836673.47,41172,22.0,74238.8,5.79,-14.47,-15.21,0,*76
1500836674.69,41173,22.0,74236.3,5.77,-14.69,-15.25,0,*71
1500836675.95,41174,22.0,74236.3,5.77,-14.83,-15.25,0,*72
1500836677.23,41175,22.0,74234.8,5.77,-14.83,-15.39,0,*7E
1500836678.47,41176,22.0,74238.5,5.77,-14.89,-15.43,0,*7A
1500836679.71,41177,22.0,74234.8,5.75,-15.01,-15.21,0,*7C
1500836680.93,41178,22.0,74232.5,5.75,-12.47,-12.75,0,*70
1500836682.17,41179,22.0,74232.5,5.77,-11.73,-12.93,0,*7F
1500836683.39,41180,22.0,74238.3,5.75,-12.61,-14.19,0,*7F
1500836684.63,41181,22.0,74236.0,5.75,-13.87,-15.01,0,*7F
1500836685.88,41182,22.0,74234.8,5.77,-14.43,-15.15,0,*74
1500836687.1,41183,22.0,74234.5,5.73,-14.61,-15.15,0,*71
1500836688.36,41184,22.0,74238.0,5.73,-14.93,-14.75,0,*7C
1500836689.58,41185,22.0,74232.5,5.75,-14.15,-13.01,0,*71
1500836690.85,41186,22.0,74234.5,5.73,-13.33,-12.61,0,*70
1500836692.1,41187,22.0,74230.5,5.73,-12.29,-11.85,0,*72
1500836693.31,41188,22.0,74228.5,5.73,-10.89,-12.43,0,*7C
1500836694.55,41189,22.0,74232.8,5.71,-11.55,-14.75,0,*7C
1500836695.75,41190,22.0,74234.8,5.71,-13.47,-15.75,0,*74
1500836696.98,41191,22.0,74232.5,5.73,-14.15,-16.03,0,*75
1500836698.22,41192,22.0,74236.5,5.71,-14.47,-16.23,0,*71
1500836699.45,41193,22.0,74236.3,5.71,-14.89,-16.09,0,*7A
1500836700.68,41194,22.0,74232.3,5.71,-15.21,-15.85,0,*79
1500836701.92,41195,22.0,74232.8,5.71,-14.97,-15.21,0,*7A
1500836703.14,41196,22.0,74232.3,5.67,-13.87,-13.51,0,*79
1500836704.33,41197,22.0,74234.5,5.67,-13.43,-15.11,0,*72
1500836705.55,41198,22.0,74238.8,5.69,-14.37,-14.61,0,*71
1500836706.78,41199,22.0,74224.0,5.69,-14.19,-13.11,0,*7C
1500836708.02,41200,22.0,74216.0,5.69,-13.33,-13.19,0,*78
1500836709.26,41201,22.0,74216.5,5.69,-13.33,-13.07,0,*76
1500836710.49,41202,22.0,74214.8,5.67,-12.79,-10.31,0,*72
1500836711.67,41203,22.0,74208.3,5.67,-9.97,-7.19,0,*75
1500836712.87,41204,22.0,74214.0,5.67,-8.11,-6.13,0,*76
1500836714.1,41205,22.0,74222.0,5.69,-6.63,-6.13,0,*72
1500836715.33,41206,22.0,74224.8,5.67,-5.61,-7.73,0,*79
1500836716.58,41207,22.0,74228.8,5.69,-6.63,-9.83,0,*76
1500836717.8,41208,22.0,74226.8,5.71,-7.99,-10.93,0,*4D
1500836719.01,41209,22.0,74230.3,5.71,-8.89,-11.51,0,*4D
1500836720.26,41210,21.94,74226.0,5.69,-10.15,-12.35,0,*71
1500836721.54,41211,22.0,74228.8,5.69,-11.29,-12.75,0,*7A
1500836722.78,41212,22.0,74228.3,5.69,-11.89,-12.47,0,*72
1500836724.03,41213,22.0,74224.0,5.71,-11.51,-10.67,0,*7F
1500836725.24,41214,22.0,74230.0,5.71,-10.35,-9.61,0,*45
1500836726.48,41215,22.0,74230.8,5.71,-9.45,-9.53,0,*7A
1500836727.68,41216,22.0,74230.3,5.73,-8.97,-8.75,0,*70
1500836728.89,41217,22.0,74232.8,5.71,-8.37,-8.07,0,*7C
1500836730.12,41218,22.0,74230.8,5.71,-7.31,-7.01,0,*73
1500836731.3,41219,22.0,74224.5,5.71,-6.77,-6.13,0,*73
1500836732.48,41220,22.0,74228.8,5.71,-6.05,-5.35,0,*7B
1500836733.66,41221,22.0,74224.0,5.71,-5.43,-4.37,0,*78
1500836734.83,41222,22.0,74222.0,5.71,-4.37,-3.23,0,*7B
1500836736.03,41223,22.0,74226.5,5.71,-3.67,-2.99,0,*78
1500836737.24,41224,22.0,74224.3,5.73,-3.07,-2.83,0,*70
1500836738.47,41225,22.0,74226.8,5.71,-2.71,-2.47,0,*7B
1500836739.71,41226,22.0,74224.0,5.73,-2.59,-2.23,0,*72
1500836740.94,41227,21.94,74220.3,5.73,-2.43,-1.91,0,*72
1500836742.17,41228,21.94,74216.8,5.73,-2.07,-1.79,0,*7B
1500836743.4,41229,22.0,74224.0,5.73,-1.47,-1.59,0,*7F
1500836744.63,41230,22.0,74230.3,5.73,-0.97,-1.59,0,*4B
1500836745.81,41231,22.0,74230.8,5.75,-0.37,-1.71,0,*4C
1500836747.0,41232,22.0,74232.5,5.75,-0.19,-2.31,0,*44
1500836748.2,41233,22.0,74234.0,5.79,-0.27,-2.79,0,*48
1500836749.38,41234,22.0,74238.0,5.75,-0.69,-3.83,0,*4D
1500836750.59,41235,22.0,74238.3,5.75,-1.47,-5.51,0,*78
1500836751.85,41236,22.0,74232.8,5.77,-2.71,-8.11,0,*76
1500836753.08,41237,22.0,74234.8,5.77,-5.39,-11.81,0,*4D
1500836754.29,41238,22.0,74236.5,5.77,-8.41,-13.15,0,*4F
1500836755.49,41239,22.0,74234.5,5.77,-9.93,-13.23,0,*45
1500836756.74,41240,22.0,74232.0,5.77,-10.75,-12.39,0,*71
1500836757.98,41241,22.0,74228.8,5.77,-10.35,-11.73,0,*79
1500836759.2,41242,22.0,74228.5,5.77,-10.27,-10.85,0,*71
1500836760.41,41243,22.0,74232.8,5.75,-9.53,-10.27,0,*41
1500836761.63,41244,22.0,74234.8,5.77,-9.05,-11.01,0,*42
1500836762.82,41245,22.0,74232.3,5.75,-9.67,-12.21,0,*44
1500836764.03,41246,22.0,74236.5,5.75,-9.97,-12.61,0,*4C
1500836765.22,41247,22.0,74242.5,5.75,-11.23,-13.93,0,*77
1500836766.42,41248,22.0,74236.0,5.75,-12.47,-14.29,0,*7F
1500836767.64,41249,22.0,74234.0,5.75,-12.97,-12.83,0,*75
1500836768.86,41250,22.0,74230.3,5.75,-10.75,-10.49,0,*77
1500836770.07,41251,21.94,74224.0,5.75,-9.67,-9.83,0,*73
1500836771.3,41252,22.0,74230.8,5.75,-9.53,-9.37,0,*78
1500836772.5,41253,22.0,74226.8,5.75,-9.49,-9.27,0,*73
1500836773.72,41254,21.94,74222.5,5.75,-9.27,-9.49,0,*74
1500836774.91,41255,22.0,74220.0,5.75,-9.23,-10.01,0,*45
1500836776.12,41256,22.0,74226.8,5.75,-9.79,-11.33,0,*49
1500836777.36,41257,22.0,74234.5,5.77,-10.57,-12.65,0,*7E
1500836778.57,41258,22.0,74236.0,5.75,-11.73,-13.93,0,*7C
1500836779.79,41259,22.0,74238.5,5.75,-12.61,-14.61,0,*77
1500836781.01,41260,21.94,74238.3,5.75,-13.73,-15.57,0,*7B
1500836782.2,41261,22.0,74236.8,5.75,-14.61,-15.63,0,*79
1500836783.4,41262,21.94,74230.3,5.75,-14.69,-15.75,0,*75
1500836784.65,41263,22.0,74230.8,5.75,-15.43,-16.09,0,*75
1500836785.89,41264,22.0,74242.5,5.73,-15.57,-16.03,0,*7B
1500836787.13,41265,22.0,74246.0,5.73,-15.95,-16.31,0,*75
1500836788.37,41266,22.0,74238.8,5.71,-16.23,-16.65,0,*7B
1500836789.58,41267,21.94,74234.5,5.73,-15.95,-16.37,0,*71
1500836790.82,41268,22.0,74232.8,5.71,-15.85,-16.23,0,*78
1500836792.07,41269,22.0,74230.8,5.71,-15.85,-16.23,0,*79
1500836793.26,41270,22.0,74226.5,5.71,-15.53,-15.75,0,*7A
1500836794.46,41271,21.94,74220.0,5.71,-15.07,-15.53,0,*7E
1500836795.65,41272,22.0,74226.3,5.71,-15.63,-15.95,0,*75
1500836796.84,41273,22.0,74226.3,5.71,-15.75,-15.67,0,*7E
1500836798.06,41274,22.0,74226.8,5.71,-14.79,-15.11,0,*75
1500836799.3,41275,22.0,74226.3,5.69,-14.93,-15.11,0,*79
1500836800.51,41276,22.0,74228.0,5.71,-14.93,-14.61,0,*75
1500836801.75,41277,21.94,74222.8,5.69,-14.79,-14.65,0,*7D
1500836802.95,41278,22.0,74220.8,5.71,-14.23,-13.73,0,*74
1500836804.16,41279,22.0,74222.0,5.71,-14.79,-13.93,0,*74
1500836805.37,41280,22.0,74220.0,5.71,-14.33,-12.65,0,*74
1500836806.61,41281,22.0,74208.3,5.71,-12.79,-11.89,0,*7C
1500836807.81,41282,22.0,74204.8,5.71,-12.21,-12.25,0,*77
1500836809.07,41283,22.0,74202.0,5.69,-12.79,-13.01,0,*75
1500836810.34,41284,21.94,74208.0,5.69,-13.33,-13.61,0,*7B
1500836811.58,41285,22.0,74216.8,5.69,-13.19,-13.01,0,*74
1500836812.83,41286,21.94,74218.0,5.69,-11.67,-12.25,0,*7B
1500836814.04,41287,22.0,74224.5,5.69,-11.19,-13.51,0,*71
1500836815.29,41288,22.0,74238.3,5.67,-12.53,-14.97,0,*70
1500836816.49,41289,22.0,74238.8,5.71,-13.65,-15.49,0,*70
1500836817.74,41290,22.0,74236.8,5.69,-14.33,-15.39,0,*72
1500836818.97,41291,21.94,74238.3,5.69,-14.37,-15.25,0,*7A
1500836820.18,41292,21.94,74234.0,5.69,-14.65,-15.63,0,*7C
1500836821.4,41293,22.0,74240.0,5.69,-15.11,-15.95,0,*76
1500836822.61,41294,22.0,74236.0,5.67,-15.39,-15.99,0,*79
1500836823.83,41295,21.94,74232.5,5.69,-15.49,-15.95,0,*7D
1500836825.05,41296,22.0,74230.3,5.69,-15.63,-15.95,0,*76
1500836826.3,41297,21.94,74232.0,5.69,-15.75,-15.81,0,*75
1500836827.53,41298,21.94,74230.8,5.69,-15.75,-15.49,0,*7E
1500836828.75,41299,22.0,74234.5,5.69,-15.67,-14.89,0,*71
1500836829.97,41300,22.0,74234.0,5.67,-15.43,-13.65,0,*7D
1500836831.21,41301,21.94,74224.8,5.67,-14.55,-12.65,0,*7B
1500836832.41,41302,21.94,74224.5,5.67,-13.43,-12.29,0,*70
1500836833.64,41303,21.94,74222.8,5.67,-12.29,-12.53,0,*71
1500836834.86,41304,22.0,74228.8,5.67,-11.59,-13.51,0,*71
1500836836.07,41305,22.0,74228.3,5.67,-11.73,-14.29,0,*70
1500836837.29,41306,21.94,74222.3,5.67,-12.11,-13.55,0,*78
1500836838.51,41307,22.0,74224.0,5.67,-11.67,-13.23,0,*7A
1500836839.71,41308,21.94,74232.0,5.67,-12.43,-14.37,0,*72
1500836840.94,41309,22.0,74236.3,5.67,-13.51,-15.43,0,*73
1500836842.16,41310,22.0,74238.5,5.63,-14.43,-15.95,0,*70
1500836843.41,41311,21.94,74238.0,5.67,-14.55,-15.43,0,*79
1500836844.62,41312,22.0,74236.0,5.67,-14.15,-14.37,0,*7C
1500836845.86,41313,22.0,74236.5,5.61,-13.11,-13.33,0,*7B
1500836847.1,41314,21.94,74234.3,5.63,-12.61,-13.01,0,*79
1500836848.32,41315,21.94,74236.5,5.63,-12.97,-13.61,0,*77
1500836849.58,41316,21.94,74240.8,5.61,-13.97,-15.29,0,*7D
1500836850.85,41317,22.0,74244.8,5.61,-14.55,-15.35,0,*78
1500836852.11,41318,21.94,74242.5,5.61,-15.01,-15.85,0,*7C
1500836853.38,41319,22.0,74242.3,5.61,-15.35,-15.85,0,*7A
1500836854.6,41320,21.94,74236.8,5.63,-15.35,-15.75,0,*7D
1500836855.85,41321,21.94,74238.3,5.61,-15.57,-15.95,0,*74
1500836857.12,41322,21.94,74240.3,5.61,-15.89,-16.09,0,*72
1500836858.4,41323,21.94,74236.5,5.61,-15.89,-16.09,0,*73
1500836859.64,41324,22.0,74242.3,5.61,-15.95,-16.17,0,*76
1500836860.86,41325,21.94,74236.8,5.63,-16.03,-16.23,0,*7E
1500836862.08,41326,22.0,74238.8,5.63,-15.95,-16.23,0,*71
1500836863.32,41327,21.94,74230.5,5.61,-15.95,-16.23,0,*72
1500836864.6,41328,22.0,74232.5,5.61,-15.89,-16.09,0,*78
1500836865.85,41329,22.0,74234.0,5.61,-15.75,-16.09,0,*7A
1500836867.07,41330,22.0,74234.5,5.59,-15.81,-15.99,0,*78
1500836868.31,41331,21.94,74222.8,5.61,-15.75,-15.21,0,*7A
1500836869.56,41332,21.94,74224.0,5.63,-14.43,-13.97,0,*74
1500836870.81,41333,21.94,74224.5,5.61,-14.01,-14.33,0,*78
1500836872.02,41334,21.94,74228.3,5.59,-14.19,-15.49,0,*71
1500836873.23,41335,21.94,74228.5,5.59,-15.25,-15.95,0,*7F
1500836874.46,41336,22.0,74238.3,5.59,-15.75,-15.81,0,*7C
1500836875.67,41337,21.94,74236.0,5.59,-15.99,-15.89,0,*77
1500836876.91,41338,21.94,74230.5,5.57,-15.99,-16.13,0,*76
1500836878.14,41339,21.94,74228.0,5.59,-15.95,-16.23,0,*76
1500836879.36,41340,21.94,74234.8,5.59,-15.95,-16.23,0,*78
1500836880.61,41341,22.0,74234.0,5.57,-15.63,-16.09,0,*76
1500836881.81,41342,22.0,74234.5,5.59,-15.67,-15.99,0,*75
1500836883.01,41343,21.94,74226.8,5.59,-15.67,-15.75,0,*76
1500836884.23,41344,21.94,74220.3,5.57,-15.67,-15.99,0,*7D
1500836885.45,41345,21.94,74224.0,5.59,-15.75,-16.13,0,*70
1500836886.7,41346,21.94,74228.0,5.59,-15.89,-16.27,0,*77
1500836887.97,41347,22.0,74230.5,5.57,-15.89,-16.23,0,*7C
1500836889.22,41348,21.94,74228.3,5.59,-15.89,-16.23,0,*7D
1500836890.46,41349,21.94,74228.5,5.57,-15.99,-16.23,0,*73
1500836891.74,41350,22.0,74232.3,5.57,-15.89,-16.09,0,*72
1500836892.98,41351,22.0,74234.0,5.57,-15.99,-16.23,0,*7A
1500836894.22,41352,21.94,74234.0,5.57,-15.95,-16.23,0,*75
1500836895.5,41353,21.94,74236.5,5.57,-15.81,-16.09,0,*79
1500836896.74,41354,21.94,74236.5,5.57,-15.95,-16.13,0,*70
1500836897.99,41355,21.94,74232.3,5.57,-15.81,-15.95,0,*79
1500836899.24,41356,21.94,74238.5,5.57,-15.67,-15.89,0,*7F
1500836900.48,41357,21.94,74236.0,5.57,-15.63,-15.89,0,*7A
1500836901.71,41358,21.94,74234.5,5.59,-15.75,-15.89,0,*7C
1500836902.95,41359,22.0,74234.0,5.57,-15.11,-14.51,0,*75
1500836904.17,41360,21.94,74230.8,5.57,-14.37,-13.73,0,*7D
1500836905.42,41361,21.94,74232.0,5.57,-13.87,-12.93,0,*7F
1500836906.7,41362,21.94,74232.5,5.57,-13.33,-11.93,0,*70
1500836907.97,41363,21.94,74234.5,5.57,-11.51,-11.07,0,*7A
1500836909.24,41364,21.94,74232.8,5.57,-10.41,-11.67,0,*7B
1500836910.49,41365,21.94,74234.0,5.57,-9.31,-11.67,0,*45
1500836911.71,41366,21.94,74238.8,5.57,-9.31,-12.21,0,*47